Reflectivity
-20 -20 -20 -20 -20 -20 -20 -20 -20 -20 -20 -20 -20 -20 -20 -20 -20 -20 -20 -20 -20 -4 -20 -1 -2 -3 3 9 -4 3 -1 27 15 2 16 25 26 -2 -8 8 4 -20 1
-20 -20 -20 -20 -20 -20 -20 -20 -20 -20 -20 -20 -20 -20 -20 -20 -20 -20 -20 -20 -20 -20 -20 -5 -17 -2 6 11 14 8 12 24 21 15 26 28 24 16 -7 -20 -20 -20 -20
-20 -20 -20 -20 -20 -20 -20 -20 -20 -20 -20 -20 -20 -20 -20 -20 -20 -20 -20 -20 -20 -20 -20 -20 8 4 -1 14 16 9 17 17 21 17 18 18 29 20 12 9 6 -17 -5
-20 -20 -20 -20 -20 -20 -20 -20 -20 -20 -20 -20 -20 -20 -20 -20 -20 -20 -20 -20 -18 -18 -20 -20 -19 12 10 9 15 17 11 10 14 20 17 16 11 16 28 20 -5 -8 -4
-20 -20 -20 -20 -20 -20 -20 -20 -20 -20 -20 -2 -20 -20 -20 -20 -13 -9 -20 -20 -20 -19 -20 -20 -20 -4 12 10 14 12 17 16 15 15 14 11 10 8 13 10 2 -6 8
-20 -20 -20 -20 -20 -20 -20 -20 -20 -20 -20 -20 -20 -20 -20 -20 -5 7 -20 -20 -20 4 -20 -20 -20 -20 4 8 18 10 7 17 18 0 -5 3 6 -2 -6 -0 4 -4 -5
-20 -20 -20 -20 -20 -20 -20 -20 -20 -20 -20 -20 -20 -20 -20 -20 -15 5 -20 -20 -20 -3 -19 -20 -20 -20 6 2 5 5 5 7 7 9 4 -4 -18 -20 -15 -7 -3 -14 -8
-20 -20 -20 -20 -20 -20 -20 -20 -20 -20 -20 -20 -20 -20 -20 -20 -20 -11 -18 -20 -20 -16 -20 -20 -20 -5 -6 -20 -1 0 -5 -8 -3 -15 -11 -9 -19 -20 -20 -20 -18 1 -15
-20 -20 -20 -20 -20 -20 -20 -20 -20 -20 -20 -20 -20 -20 -20 -20 -14 6 -13 -20 -20 -20 -20 0 -18 2 11 6 -20 -20 -20 -14 -20 -20 -20 -20 -19 -20 -20 -20 -20 -20 -14
-20 -20 -20 -20 -20 -20 -20 -20 -20 -20 -20 -20 -20 -20 -20 -20 -20 7 8 -16 -19 -20 -14 -20 -6 10 9 8 -12 -2 -19 -20 -20 -20 -20 -20 -20 -20 -20 -20 -20 -20 -20
-20 -20 -20 -20 -20 -20 -20 -20 -20 -20 -20 -20 -20 -20 -20 -20 -16 -7 9 4 -3 -20 9 -2 -18 9 7 10 0 -15 -20 -20 -20 -20 -20 -20 -20 -20 -20 -20 -20 -20 -20
-20 -20 -20 -20 -20 -20 -20 -20 -20 -20 -20 -20 -20 -20 -20 -20 -20 -4 4 4 -3 -10 10 3 -0 5 3 6 -13 0 -20 -20 -20 -20 -20 -20 -20 -20 -20 -20 -20 -18 -13
-20 -20 -20 -20 -20 -20 -20 -20 -20 -20 -20 -20 -20 -20 -20 -20 -20 -20 5 6 -5 -20 -0 -16 1 -3 -3 -19 -2 -18 -20 -20 -20 -19 -19 -20 -20 -20 -20 -20 -20 -20 -20
-20 -20 -20 -20 -20 -20 -20 -20 -20 -20 -20 -20 -20 -20 -20 -20 -19 -19 -2 1 -20 -20 -20 -19 -20 -17 -20 -20 -20 -20 -20 -20 -20 -19 -20 -20 -20 -20 -20 -20 -20 -20 -20
-20 -20 -20 -20 -20 -20 -20 -20 -20 -20 -20 -20 -20 -20 -20 -20 -18 -2 -1 5 -16 -5 -5 -3 -17 -20 -20 -20 -20 -20 -20 -20 -20 -20 -20 -20 -20 -20 -20 -20 -20 -20 -20
-20 -20 -20 -20 -20 -20 -20 -20 -20 -20 -20 -20 -20 -20 -20 -14 -2 -12 4 5 -8 -10 -10 -20 -20 -20 -20 -20 -20 -20 -20 -20 -20 -20 -20 -20 -20 -20 -20 -20 -20 -20 -20
-20 -20 -20 -20 -20 -20 -20 -20 -20 -20 -20 -20 -20 -20 -20 -20 -15 -3 -18 -5 -20 -10 -20 -20 -20 -20 -20 -20 -20 -20 -20 -20 -20 -20 -20 -20 -20 -20 -20 -20 -20 -20 -20
-20 -20 -20 -20 -20 -20 -20 -20 -20 -20 -20 -20 -20 -20 -20 -20 -20 -20 -20 -8 -12 -20 -20 -20 -20 -20 -20 -20 -20 -20 -20 -20 -20 -20 -20 -20 -20 -20 -20 -20 -20 -20 -20
-20 -20 -20 -20 -20 -20 -20 -20 -20 -20 -20 -20 -20 -20 -20 -20 -20 -20 -20 -20 -20 -20 -20 -20 -20 -20 -20 -20 -20 -20 -20 -18 -17 -20 -20 -20 -20 -20 -20 -18 -20 -20 -20
-20 -20 -20 -20 -20 -20 -20 -20 -20 -20 -20 -20 -20 -20 -20 -20 -20 -20 -20 -20 -20 -20 -20 -20 -20 -20 -20 -20 -20 -20 -20 -20 -20 -20 -20 -20 -20 -20 -19 -20 -20 -18 -19
-20 -20 -20 -20 -20 -20 -20 -20 -20 -20 -20 -20 -20 -20 -20 -20 -20 -20 -20 -20 -20 -20 -20 -20 -20 -20 -20 -20 -20 -20 -20 -20 -20 -20 -20 -20 -20 -19 -20 -20 -20 -20 -20
-20 -20 -20 -20 -20 -20 -20 -20 -20 -20 -20 -20 -20 -20 -20 -20 -20 -20 -20 -20 -20 -18 -20 -17 -20 -20 -20 -20 -20 -20 -20 -20 -20 -20 -20 -20 -20 -20 -20 -20 -20 -20 -20
-20 -20 -20 -20 -20 -20 -20 -20 -20 -20 -20 -20 -20 -20 -20 -20 -20 -20 -20 -20 -20 -20 -20 -20 -20 -20 -20 -20 -20 -20 -20 -20 -20 -20 -20 -20 -20 -20 -20 -20 -20 -20 -20
-20 -20 -20 -20 -20 -20 -20 -20 -20 -20 -20 -20 -20 -20 -20 -20 -20 -20 -20 -20 -20 -20 -20 -20 -20 -20 -20 -20 -20 -20 -20 -19 -20 -20 -20 -20 -20 -20 -20 -20 -20 -20 -20
-20 -20 -20 -20 -20 -20 -20 -20 -20 -20 -20 -20 -20 -20 -20 -20 -20 -20 -20 -20 -20 -20 -20 -20 -20 -20 -20 -20 -20 -20 -20 -20 -20 -20 -20 -20 -20 -20 -20 -20 -20 -20 -20
-20 -20 -20 -20 -20 -20 -20 -20 -20 -20 -20 -20 -20 -20 -20 -20 -20 -20 -20 -20 -20 -20 -20 -20 -20 -20 -20 -20 -20 -20 -20 -20 -20 -20 -20 -20 -20 -20 -20 -20 -20 -20 -20
Wind_Speed
6 5 6 6 6 6 6 6 6 6 5 5 7 8 9 11 14 13 13 12 13 11 7 12 10 13 10 11 10 10 8 5 3 3 2 4 6 8 8 7 7 6 8
5 6 6 6 6 6 7 7 7 6 6 6 7 7 8 11 15 14 15 14 12 10 8 10 11 10 13 13 10 13 11 9 4 6 4 3 4 8 6 8 7 7 7
6 6 6 7 6 7 7 8 7 6 6 7 6 7 7 11 15 16 15 15 13 7 6 11 9 14 13 12 11 9 10 9 8 4 5 3 2 8 3 4 8 8 8
6 6 6 7 6 7 7 7 7 8 7 7 6 6 8 11 14 16 15 15 16 5 9 12 12 14 13 14 10 9 9 9 7 6 4 5 3 6 4 4 5 7 7
6 6 6 6 6 7 7 9 9 8 8 8 6 5 8 11 14 17 14 14 14 9 10 12 12 19 25 20 11 9 10 8 6 6 6 6 6 6 9 6 4 2 5
6 6 5 6 5 7 7 9 9 9 8 8 6 5 6 10 28 28 21 13 13 7 10 11 12 17 19 23 22 21 15 10 8 7 7 9 9 6 6 6 4 5 3
7 8 8 8 7 8 9 9 10 11 7 10 7 7 6 13 29 28 27 12 12 11 9 8 11 10 14 13 18 18 17 20 12 7 8 5 6 8 7 9 7 6 4
7 8 8 8 7 8 9 9 11 9 8 9 8 8 9 13 28 29 25 12 11 11 10 11 12 11 14 15 13 12 11 12 12 8 7 5 6 7 6 5 4 2 3
7 7 7 8 8 9 10 10 10 10 10 11 10 12 12 13 28 28 20 11 11 11 11 10 13 12 21 22 12 12 12 13 14 19 20 21 21 19 13 7 8 6 3
6 6 6 6 6 8 8 9 9 9 10 9 11 12 18 14 24 27 22 10 12 10 10 11 19 18 22 23 12 12 12 13 12 12 11 13 14 14 17 10 4 6 2
5 5 6 7 4 6 7 7 9 9 8 10 10 10 12 15 16 27 26 12 11 10 10 10 9 24 23 23 20 13 15 11 11 9 8 8 9 9 9 9 9 4 3
6 5 6 7 4 5 7 6 7 7 9 11 12 10 9 11 20 23 25 25 22 11 11 9 11 23 23 22 16 23 20 11 8 8 8 8 9 9 8 8 8 7 3
6 7 5 6 5 5 5 5 4 5 7 9 10 9 10 10 10 23 22 24 22 11 10 17 22 22 21 14 23 23 13 9 8 9 9 8 8 7 9 9 9 9 7
3 4 6 5 6 5 4 3 4 4 5 7 8 9 8 9 10 10 9 10 17 12 11 10 11 14 12 11 10 12 9 9 9 8 7 7 7 8 8 7 7 8 5
5 5 6 5 5 5 3 3 4 2 4 4 4 7 8 9 12 19 17 11 11 12 9 7 9 10 11 10 10 11 10 10 10 9 9 8 8 8 8 7 7 5 5
5 4 4 4 4 4 4 5 11 10 11 19 21 13 7 19 24 26 23 23 25 20 10 10 11 10 11 11 11 10 10 11 10 9 8 8 8 8 7 7 6 4 5
5 4 4 4 4 4 4 5 6 8 9 14 23 22 23 22 25 26 24 21 24 17 11 10 10 10 10 10 10 10 10 9 10 8 8 8 8 8 8 6 7 5 6
5 8 4 2 3 4 4 4 4 4 5 6 14 19 22 23 24 26 25 15 11 14 10 10 10 10 10 9 10 10 9 9 9 8 8 8 8 8 8 8 8 7 6
4 4 4 4 4 5 4 5 6 6 6 7 7 10 13 22 22 23 23 11 10 11 10 10 10 9 9 9 9 9 9 8 9 8 9 9 9 8 8 7 7 7 7
4 5 5 4 4 4 4 6 6 6 6 7 8 10 10 10 11 12 11 10 10 9 10 10 10 9 9 9 9 9 8 9 9 9 9 8 9 8 8 8 8 8 7
3 4 6 4 4 4 4 6 5 4 6 7 7 9 12 9 10 9 10 10 10 10 11 10 10 10 10 10 9 9 8 8 8 8 8 9 9 8 8 8 7 8 8
3 4 5 4 4 4 4 5 4 5 6 7 6 8 10 8 9 9 9 9 10 9 9 9 10 9 10 9 9 9 9 9 9 9 9 8 8 8 7 7 8 7 8
4 5 4 4 3 4 4 4 4 4 5 6 6 7 7 7 8 8 8 9 9 9 9 10 10 11 10 9 9 9 9 10 10 9 8 8 8 8 7 8 7 8 8
5 5 4 3 3 2 3 3 3 5 4 5 5 5 5 5 5 8 8 8 8 9 9 9 10 13 11 11 10 10 9 10 9 9 10 8 8 9 7 8 8 9 8
4 3 3 3 3 2 3 3 3 3 3 3 4 4 4 4 6 6 7 7 8 8 10 9 10 12 14 16 16 17 16 19 15 14 8 9 9 11 9 8 8 8 8
4 4 3 3 3 3 3 3 3 3 3 2 3 3 3 4 4 4 6 7 8 8 9 8 11 14 15 13 16 18 18 18 16 18 9 9 9 10 8 9 12 8 10
Wind_Direction
19 24 11 15 24 18 1 343 335 341 354 339 336 336 346 358 349 341 337 332 327 327 336 348 3 348 342 342 335 343 339 326 359 16 320 328 343 6 26 24 31 26 41
25 35 8 12 22 14 357 343 336 345 334 329 327 337 9 357 351 346 338 333 328 328 328 3 4 354 352 348 337 351 348 349 334 5 345 332 7 353 19 34 27 24 24
34 29 11 11 18 6 350 339 334 328 322 322 330 349 15 0 353 347 343 338 332 321 353 3 16 2 353 347 340 346 352 350 12 354 4 329 316 6 347 21 29 29 29
37 27 15 12 19 356 338 331 329 321 320 323 334 18 14 1 3 352 347 344 346 14 21 7 8 7 355 347 336 352 357 357 359 10 357 359 354 357 357 15 32 34 29
33 30 12 10 16 347 339 332 326 325 332 346 1 46 20 11 8 0 354 352 358 19 24 9 5 6 5 0 356 355 355 1 1 14 19 20 14 0 6 344 19 356 31
35 21 18 5 7 344 329 329 327 329 338 357 12 26 35 13 10 7 7 356 357 15 22 12 2 0 1 0 5 7 13 5 4 15 19 24 16 7 354 2 1 25 11
39 20 19 4 1 346 336 336 343 349 356 4 8 14 29 12 12 9 8 1 357 359 17 3 359 353 1 2 358 4 6 7 10 8 7 357 353 354 353 9 12 67 55
39 18 13 359 349 345 345 350 1 355 3 5 13 13 30 12 10 8 10 359 358 352 2 359 356 352 9 12 358 2 6 8 13 23 17 336 332 321 4 2 7 71 71
32 16 4 349 352 359 2 9 5 3 14 10 13 12 21 12 7 6 9 0 359 348 355 353 5 4 14 18 7 8 8 10 7 19 28 26 21 16 17 12 27 26 38
23 354 342 344 5 23 12 18 6 9 11 5 9 13 10 7 359 7 9 358 359 352 352 11 2 17 19 21 16 12 14 7 4 8 15 17 16 9 15 20 3 30 11
1 342 341 335 32 44 28 27 9 5 0 8 7 9 5 3 357 8 8 8 4 351 9 7 0 17 20 23 26 24 20 2 5 11 15 18 15 11 9 5 14 20 42
340 335 336 328 43 53 49 15 8 1 6 11 8 7 358 357 357 4 9 19 12 357 10 7 5 17 22 20 26 25 15 7 9 13 19 18 12 8 0 358 1 14 30
332 335 1 14 47 43 50 14 359 1 15 13 11 360 350 355 359 2 3 17 16 7 13 15 13 16 15 12 18 15 9 9 11 15 19 11 0 352 357 4 10 18 25
324 18 20 27 31 40 30 2 355 16 19 17 10 357 348 355 1 3 7 10 11 11 6 5 5 12 13 11 8 11 10 10 11 8 7 354 355 3 13 6 8 9 13
69 47 35 30 26 19 11 320 331 44 45 8 350 349 348 4 10 17 16 16 19 10 5 13 17 17 15 12 8 9 7 11 12 7 6 4 5 2 3 2 8 2 20
41 45 42 27 9 12 13 353 1 53 65 43 30 20 355 19 19 19 22 21 25 17 18 22 18 13 10 3 3 5 6 8 6 3 3 2 1 358 348 352 359 355 358
56 56 57 33 10 14 3 16 25 356 14 24 26 21 18 23 23 22 20 21 25 22 26 19 15 8 4 1 1 2 0 3 357 0 358 356 353 348 344 348 351 349 355
50 37 38 26 24 20 8 8 23 15 0 360 19 18 18 23 24 24 20 12 18 20 20 14 10 2 0 0 1 0 358 359 359 353 351 349 350 348 343 349 350 356 359
54 24 23 45 32 28 20 24 25 18 16 16 13 16 12 17 23 23 19 20 8 11 8 8 3 1 3 2 360 358 358 355 350 347 347 346 346 345 336 352 0 1 358
72 43 56 61 35 13 35 35 24 18 20 20 24 17 4 7 18 16 13 9 6 2 4 3 1 5 1 4 1 358 354 352 350 349 344 340 338 333 349 353 358 2 4
79 58 70 63 50 20 51 41 21 15 27 23 23 20 9 18 17 12 7 3 359 352 0 1 8 4 5 2 0 356 352 345 344 342 339 336 335 351 352 355 359 11 10
71 78 64 60 47 43 43 50 30 29 33 26 19 20 11 20 18 12 7 360 354 350 359 360 11 5 6 0 356 351 349 346 341 340 335 332 346 355 353 1 9 11 12
85 90 75 50 59 46 49 36 34 34 34 29 21 22 19 16 11 8 359 353 352 351 2 5 12 8 7 1 356 352 347 343 336 328 330 349 351 359 358 3 9 9 9
82 85 99 91 45 51 56 50 32 39 38 35 18 18 18 10 357 2 356 349 352 351 2 4 4 11 3 6 358 354 348 345 340 328 344 353 354 359 3 4 12 7 10
100 95 102 99 69 63 55 55 44 27 32 42 22 14 17 7 8 357 347 347 350 350 355 358 2 360 3 4 3 359 352 353 354 347 4 2 5 10 11 11 14 9 11
109 98 95 92 74 69 76 68 68 29 32 24 22 9 22 12 355 342 345 351 355 349 349 356 355 353 1 5 2 1 359 359 359 353 10 11 15 18 15 15 19 19 17